When you browse on this site, cookies collect data to enhance your experience and personalize the content and advertising you see.
Visit our Privacy Policy to learn more. By continuing to use the site, you agree to this use of cookies and data.
  • In Spain
  • List of Countries
  • For 7 days
  • Water Temperature
  • Weather Map
  • Weather Widgets
  • user-avatar
    Login

    Hourly Weather La-Plata

    Today, 21 September, Saturday

    Time Temperature Precipitation Wind Pressure Humidity
    00:00 +10°C° 0 mm 3 mps 763 mmHg 50%
    01:00 +9°C° 0 mm 3 mps 763 mmHg 48%
    02:00 +8°C° 0 mm 4 mps 762 mmHg 45%
    03:00 +8°C° 0 mm 4 mps 763 mmHg 44%
    04:00 +8°C° 0 mm 4 mps 763 mmHg 42%
    05:00 +8°C° 0 mm 4 mps 763 mmHg 40%
    06:00 +9°C° 0 mm 5 mps 763 mmHg 42%
    07:00 +11°C° 0 mm 6 mps 763 mmHg 43%
    08:00 +14°C° 0 mm 7 mps 763 mmHg 44%
    09:00 +15°C° 0 mm 7 mps 763 mmHg 43%
    10:00 +16°C° 0 mm 7 mps 763 mmHg 42%
    11:00 +17°C° 0 mm 7 mps 763 mmHg 40%
    12:00 +18°C° 0 mm 7 mps 762 mmHg 41%
    13:00 +20°C° 0 mm 7 mps 762 mmHg 41%
    14:00 +20°C° 0 mm 7 mps 762 mmHg 42%
    15:00 +20°C° 0 mm 6 mps 762 mmHg 47%
    16:00 +19°C° 0 mm 5 mps 763 mmHg 52%
    17:00 +17°C° 0 mm 5 mps 763 mmHg 58%
    18:00 +15°C° 0 mm 4 mps 764 mmHg 55%
    19:00 +14°C° 0 mm 4 mps 764 mmHg 53%
    20:00 +12°C° 0 mm 3 mps 765 mmHg 51%
    21:00 +11°C° 0 mm 4 mps 766 mmHg 55%
    22:00 +10°C° 0 mm 4 mps 767 mmHg 60%
    23:00 +8°C° 0 mm 4 mps 767 mmHg 65%

    Tomorrow, 22 September, Sunday

    Time Temperature Precipitation Wind Pressure Humidity
    00:00 +8°C° 0 mm 4 mps 767 mmHg 67%
    01:00 +7°C° 0 mm 4 mps 768 mmHg 69%
    02:00 +6°C° 0 mm 4 mps 768 mmHg 71%
    03:00 +7°C° 0 mm 3 mps 768 mmHg 68%
    04:00 +5°C° 0 mm 3 mps 769 mmHg 66%
    05:00 +5°C° 0 mm 3 mps 769 mmHg 63%
    06:00 +7°C° 0 mm 3 mps 770 mmHg 58%
    07:00 +8°C° 0 mm 2 mps 770 mmHg 53%
    08:00 +10°C° 0 mm 2 mps 771 mmHg 47%
    09:00 +12°C° 0 mm 2 mps 771 mmHg 43%
    10:00 +13°C° 0 mm 3 mps 771 mmHg 38%
    11:00 +16°C° 0 mm 3 mps 772 mmHg 34%
    12:00 +16°C° 0 mm 3 mps 771 mmHg 35%
    13:00 +17°C° 0 mm 3 mps 771 mmHg 37%
    14:00 +17°C° 0 mm 4 mps 771 mmHg 38%
    15:00 +15°C° 0 mm 4 mps 770 mmHg 42%
    16:00 +13°C° 0 mm 4 mps 770 mmHg 45%
    17:00 +12°C° 0 mm 4 mps 770 mmHg 49%
    18:00 +11°C° 0 mm 4 mps 770 mmHg 51%
    19:00 +10°C° 0 mm 4 mps 770 mmHg 54%
    20:00 +8°C° 0 mm 5 mps 771 mmHg 56%
    21:00 +8°C° 0 mm 5 mps 770 mmHg 57%
    22:00 +8°C° 0 mm 5 mps 770 mmHg 58%
    23:00 +9°C° 0 mm 6 mps 770 mmHg 60%

    Day after tomorrow, 23 September, Monday

    Time Temperature Precipitation Wind Pressure Humidity
    00:00 +9°C° 0 mm 6 mps 770 mmHg 61%
    01:00 +9°C° 0 mm 6 mps 770 mmHg 62%
    02:00 +9°C° 0 mm 6 mps 770 mmHg 63%
    03:00 +8°C° 0 mm 6 mps 770 mmHg 63%
    04:00 +8°C° 0 mm 6 mps 769 mmHg 64%
    05:00 +8°C° 0 mm 5 mps 769 mmHg 65%
    06:00 +9°C° 0 mm 6 mps 770 mmHg 61%
    07:00 +9°C° 0 mm 6 mps 770 mmHg 57%
    08:00 +10°C° 0 mm 6 mps 770 mmHg 53%
    09:00 +12°C° 0 mm 5 mps 769 mmHg 51%
    10:00 +13°C° 0 mm 5 mps 769 mmHg 49%
    11:00 +15°C° 0 mm 5 mps 769 mmHg 46%
    12:00 +15°C° 0 mm 4 mps 768 mmHg 46%
    13:00 +17°C° 0 mm 4 mps 768 mmHg 46%
    14:00 +18°C° 0 mm 3 mps 767 mmHg 46%
    15:00 +17°C° 0 mm 3 mps 767 mmHg 52%
    16:00 +17°C° 0 mm 3 mps 766 mmHg 57%
    17:00 +16°C° 0 mm 3 mps 766 mmHg 63%
    18:00 +14°C° 0 mm 3 mps 766 mmHg 69%
    19:00 +13°C° 0 mm 3 mps 767 mmHg 75%
    20:00 +11°C° 0 mm 3 mps 767 mmHg 81%
    21:00 +11°C° 0 mm 3 mps 767 mmHg 83%
    22:00 +12°C° 0 mm 2 mps 768 mmHg 85%
    23:00 +12°C° 0 mm 2 mps 768 mmHg 87%

    24 September, Tuesday

    Time Temperature Precipitation Wind Pressure Humidity
    00:00 +12°C° 0 mm 2 mps 768 mmHg 88%
    01:00 +11°C° 0 mm 3 mps 768 mmHg 89%
    02:00 +11°C° 0 mm 3 mps 767 mmHg 90%
    03:00 +12°C° 0 mm 2 mps 767 mmHg 90%
    04:00 +10°C° 0 mm 2 mps 767 mmHg 91%
    05:00 +10°C° 0 mm 2 mps 767 mmHg 91%
    06:00 +13°C° 0 mm 1 mps 767 mmHg 87%
    07:00 +14°C° 0 mm 1 mps 768 mmHg 82%
    08:00 +15°C° 0 mm 1 mps 768 mmHg 78%
    09:00 +18°C° 0 mm 1 mps 768 mmHg 69%
    10:00 +20°C° 0 mm 1 mps 768 mmHg 61%
    11:00 +22°C° 0 mm 1 mps 767 mmHg 53%
    12:00 +22°C° 0 mm 1 mps 767 mmHg 51%
    13:00 +23°C° 0 mm 1 mps 766 mmHg 49%
    14:00 +23°C° 0 mm 1 mps 766 mmHg 47%
    15:00 +22°C° 0 mm 1 mps 766 mmHg 52%
    16:00 +21°C° 0 mm 1 mps 765 mmHg 56%
    17:00 +20°C° 0 mm 1 mps 765 mmHg 61%
    18:00 +19°C° 0 mm 1 mps 766 mmHg 63%
    19:00 +16°C° 0 mm 2 mps 766 mmHg 64%
    20:00 +15°C° 0 mm 2 mps 766 mmHg 66%
    21:00 +15°C° 0 mm 2 mps 766 mmHg 64%
    22:00 +15°C° 0 mm 2 mps 766 mmHg 62%
    23:00 +15°C° 0 mm 2 mps 766 mmHg 59%

    25 September, Wednesday

    Time Temperature Precipitation Wind Pressure Humidity
    00:00 +14°C° 0 mm 2 mps 766 mmHg 60%
    01:00 +14°C° 0 mm 2 mps 766 mmHg 60%
    02:00 +14°C° 0 mm 2 mps 766 mmHg 60%
    03:00 +13°C° 0 mm 2 mps 766 mmHg 64%
    04:00 +13°C° 0 mm 2 mps 766 mmHg 69%
    05:00 +13°C° 0 mm 2 mps 766 mmHg 73%
    06:00 +14°C° 0 mm 2 mps 766 mmHg 68%
    07:00 +15°C° 0 mm 2 mps 766 mmHg 63%
    08:00 +17°C° 0 mm 2 mps 766 mmHg 57%
    09:00 +19°C° 0 mm 2 mps 766 mmHg 55%
    10:00 +22°C° 0 mm 1 mps 766 mmHg 52%
    11:00 +24°C° 0 mm 1 mps 766 mmHg 49%
    12:00 +24°C° 0 mm 1 mps 765 mmHg 48%
    13:00 +25°C° 0 mm 2 mps 765 mmHg 47%
    14:00 +26°C° 0 mm 2 mps 764 mmHg 46%
    15:00 +25°C° 0 mm 2 mps 764 mmHg 50%
    16:00 +23°C° 0 mm 2 mps 764 mmHg 53%
    17:00 +22°C° 0 mm 1 mps 764 mmHg 57%
    18:00 +20°C° 0 mm 2 mps 764 mmHg 56%
    19:00 +19°C° 0 mm 2 mps 764 mmHg 54%
    20:00 +18°C° 0 mm 2 mps 764 mmHg 53%
    21:00 +17°C° 0 mm 2 mps 764 mmHg 57%
    22:00 +17°C° 0 mm 3 mps 764 mmHg 61%
    23:00 +17°C° 0 mm 3 mps 764 mmHg 65%

    26 September, Thursday

    Time Temperature Precipitation Wind Pressure Humidity
    00:00 +16°C° 0 mm 3 mps 764 mmHg 72%
    01:00 +16°C° 0 mm 3 mps 764 mmHg 78%
    02:00 +16°C° 0 mm 3 mps 764 mmHg 85%
    03:00 +14°C° 0 mm 3 mps 764 mmHg 84%
    04:00 +14°C° 0 mm 3 mps 764 mmHg 84%
    05:00 +14°C° 0 mm 3 mps 764 mmHg 84%
    06:00 +16°C° 0 mm 2 mps 765 mmHg 78%
    07:00 +18°C° 0 mm 2 mps 765 mmHg 73%
    08:00 +19°C° 0 mm 2 mps 765 mmHg 68%
    09:00 +20°C° 0 mm 2 mps 765 mmHg 62%
    10:00 +23°C° 0 mm 2 mps 765 mmHg 56%
    11:00 +25°C° 0 mm 2 mps 765 mmHg 50%
    12:00 +25°C° 0 mm 2 mps 765 mmHg 49%
    13:00 +25°C° 0 mm 2 mps 764 mmHg 48%
    14:00 +26°C° 0 mm 2 mps 764 mmHg 46%
    15:00 +24°C° 0 mm 2 mps 764 mmHg 51%
    16:00 +23°C° 0 mm 2 mps 763 mmHg 55%
    17:00 +21°C° 0 mm 2 mps 763 mmHg 59%
    18:00 +20°C° 0 mm 2 mps 763 mmHg 61%
    19:00 +19°C° 0 mm 3 mps 764 mmHg 62%
    20:00 +19°C° 0 mm 3 mps 764 mmHg 64%
    21:00 +18°C° 0 mm 3 mps 764 mmHg 67%
    22:00 +18°C° 0 mm 3 mps 764 mmHg 71%
    23:00 +18°C° 0 mm 4 mps 763 mmHg 74%
    Show more